This is the latest recevied weather packets stored in our database for station/object IW2GOB-3. If no packets are shown the sender has not sent any weather packets the latest 1 day(s).
| Time | Temp. | Humidity | Pressure | Rain* | Wind** | Luminosity | Snow |
|---|---|---|---|---|---|---|---|
| 1778027124 | 13.89° C | 93% | 1010.3 hPa | 0 mm | 0.89 m/s, 72° | - | - |
| 1778026524 | 13.89° C | 93% | 1010.5 hPa | 0 mm | 0.45 m/s, 46° | - | - |
| 1778025924 | 13.89° C | 93% | 1010.6 hPa | 0 mm | 0.45 m/s, 31° | - | - |
| 1778025324 | 14.44° C | 93% | 1010.8 hPa | 0 mm | 0.45 m/s, 26° | - | - |
| 1778024724 | 14.44° C | 93% | 1011.1 hPa | 0 mm | 0.45 m/s, 89° | - | - |
| 1778024124 | 14.44° C | 93% | 1011.1 hPa | 0 mm | 0.89 m/s, 102° | - | - |
| 1778023524 | 14.44° C | 93% | 1011.2 hPa | 0 mm | 0.89 m/s, 130° | - | - |
| 1778022924 | 14.44° C | 93% | 1011.1 hPa | 0 mm | 0.89 m/s, 101° | - | - |
| 1778022324 | 14.44° C | 93% | 1011 hPa | 0 mm | 0.45 m/s, 76° | - | - |
| 1778021724 | 14.44° C | 93% | 1011.1 hPa | 0 mm | 0.89 m/s, 81° | - | - |
| 1778021124 | 14.44° C | 93% | 1011 hPa | 0 mm | 0.45 m/s, 71° | - | - |
| 1778020524 | 14.44° C | 93% | 1011.3 hPa | 0 mm | 0.45 m/s, 24° | - | - |
| 1778019924 | 14.44° C | 93% | 1011.2 hPa | 0 mm | 0 m/s | - | - |
| 1778019324 | 14.44° C | 93% | 1011.3 hPa | 0 mm | 0.45 m/s, 55° | - | - |
| 1778018724 | 14.44° C | 93% | 1011.4 hPa | 0 mm | 0.45 m/s, 61° | - | - |
| 1778018126 | 14.44° C | 93% | 1011.4 hPa | 0 mm | 0.45 m/s, 61° | - | - |
| 1778017524 | 14.44° C | 92% | 1011.5 hPa | 0 mm | 0.45 m/s, 79° | - | - |
| 1778016924 | 14.44° C | 92% | 1011.6 hPa | 0 mm | 0 m/s | - | - |
| 1778016323 | 14.44° C | 92% | 1011.6 hPa | 0 mm | 0.45 m/s, 60° | - | - |
| 1778015723 | 14.44° C | 92% | 1011.6 hPa | 0 mm | 0.45 m/s, 53° | - | - |
| 1778015123 | 14.44° C | 92% | 1011.8 hPa | 0 mm | 0.45 m/s, 79° | - | - |
| 1778014523 | 14.44° C | 92% | 1011.9 hPa | 0 mm | 0.45 m/s, 78° | - | - |
| 1778013923 | 14.44° C | 91% | 1011.9 hPa | 0.25 mm | 0 m/s | - | - |
| 1778013323 | 15° C | 91% | 1011.8 hPa | 0.25 mm | 0.45 m/s, 54° | - | - |
| 1778012723 | 15° C | 91% | 1011.8 hPa | 0.51 mm | 0.89 m/s, 72° | - | - |
* Rain latest hour (hover to see other rain measurements)
** Current wind speed in m/s (hover to see current wind gust speed)